Massena, NY

4:03 AM EDT on June 24, 2017 (GMT -0400)
Massena International-Richards

Weather History for KMSS - October, 2011

Change the Weather History Date:

Friday, October 21, 2011

  Actual Average Record
Temperature  
Mean Temperature 51 °F 44 °F  
Max Temperature 55 °F 54 °F 77 °F (1979)
Min Temperature 46 °F 35 °F 20 °F (1948)
Degree Days  
Heating Degree Days 14 21  
Month to date heating degree days 234 358  
Since 1 July heating degree days 354 658  
Cooling Degree Days 0 0  
Month to date cooling degree days 2 0  
Year to date cooling degree days 563 361  
Moisture  
Dew Point 44 °F    
Average Humidity 79    
Maximum Humidity 86    
Minimum Humidity 71    
Precipitation  
Precipitation 0.07 in 0.10 in 1.43 in (2016)
Month to date precipitation 0.83 2.27  
Year to date precipitation 27.22 28.46  
Sea Level Pressure  
Sea Level Pressure 29.74 in    
Wind  
Wind Speed 10 mph (SW)    
Max Wind Speed 23 mph    
Max Gust Speed 30 mph    
Visibility 9 miles    
Events Rain    
T = Trace of Precipitation, MM = Missing Value Source: NWS Daily Summary

Daily Weather History Graph

Daily Weather History Graph

Search for Another Location

Airport or City:

Trip Planner

Search our weather history database for the weather conditions in past years. The results will help you decide how hot, cold, wet, or windy it might be!

Date:

Astronomy

Oct. 21, 2011 Rise Set
Actual Time 7:22 AM EDT 6:04 PM EDT
Civil Twilight 6:52 AM EDT 6:34 PM EDT
Nautical Twilight 6:18 AM EDT 7:08 PM EDT
Astronomical Twilight 5:44 AM EDT 7:42 PM EDT
Moon 12:54 AM EDT (10/21) 3:01 PM EDT (10/21)
Length of Visible Light 11h 42m
Length of Day
10h 42m
Waning Crescent, 34% of the Moon is Illuminated
Oct 21
Waning Crescent
Oct 26
New
Nov 2
First Quarter
Nov 10
Full
Nov 18
Last Quarter

Hourly Weather History & Observations

Time (EDT) Temp. Windchill Dew Point Humidity Pressure Visibility Wind Dir Wind Speed Gust Speed Precip Events Conditions
12:53 AM 48.2 °F - 42.8 °F 82% 29.54 in 10.0 mi SSW 5.8 mph - N/A   Overcast
1:53 AM 46.9 °F - 43.0 °F 86% 29.56 in 10.0 mi Calm Calm - N/A   Scattered Clouds
2:53 AM 48.0 °F - 42.1 °F 80% 29.57 in 10.0 mi SSW 9.2 mph - 0.00 in Rain Light Rain
3:53 AM 46.9 °F - 43.0 °F 86% 29.57 in 10.0 mi South 6.9 mph - 0.00 in   Overcast
4:53 AM 46.9 °F - 43.0 °F 86% 29.59 in 10.0 mi South 8.1 mph - N/A   Overcast
5:53 AM 46.4 °F 42.4 °F 42.8 °F 87% 29.59 in 10.0 mi SSW 8.1 mph - N/A   Overcast
6:01 AM 46.4 °F 41.5 °F 42.8 °F 87% 29.60 in 10.0 mi South 10.4 mph - N/A   Overcast
6:18 AM 46.4 °F 42.4 °F 42.8 °F 87% 29.60 in 10.0 mi South 8.1 mph - N/A   Overcast
6:32 AM 48.2 °F - 42.8 °F 82% 29.60 in 10.0 mi South 8.1 mph - N/A   Overcast
6:53 AM 48.0 °F - 42.1 °F 80% 29.62 in 10.0 mi South 9.2 mph - N/A   Overcast
7:53 AM 48.0 °F - 42.1 °F 80% 29.64 in 10.0 mi South 8.1 mph - N/A   Overcast
8:46 AM 48.2 °F - 44.6 °F 87% 29.65 in 7.0 mi SSW 11.5 mph - N/A   Overcast
8:53 AM 48.0 °F - 45.0 °F 89% 29.66 in 6.0 mi SSW 10.4 mph - N/A   Overcast
9:53 AM 50.0 °F - 46.0 °F 86% 29.69 in 6.0 mi SW 15.0 mph 20.7 mph 0.00 in Rain Light Rain
10:09 AM 51.8 °F - 46.4 °F 82% 29.69 in 10.0 mi WSW 10.4 mph 19.6 mph N/A   Overcast
10:53 AM 51.8 °F - 44.6 °F 76% 29.71 in 10.0 mi WSW 8.1 mph - N/A   Overcast
11:53 AM 52.0 °F - 44.1 °F 74% 29.74 in 10.0 mi SW 13.8 mph 19.6 mph N/A   Overcast
12:37 PM 51.8 °F - 46.4 °F 82% 29.73 in 10.0 mi SW 8.1 mph - 0.00 in Rain Light Rain
12:53 PM 52.0 °F - 46.0 °F 80% 29.74 in 10.0 mi SW 9.2 mph - 0.00 in   Overcast
1:12 PM 53.6 °F - 46.4 °F 77% 29.73 in 10.0 mi WSW 6.9 mph - N/A   Overcast
1:53 PM 54.0 °F - 46.9 °F 77% 29.75 in 10.0 mi WSW 8.1 mph - N/A   Overcast
2:35 PM 55.4 °F - 46.4 °F 72% 29.75 in 10.0 mi SW 9.2 mph - N/A   Overcast
2:53 PM 54.0 °F - 45.0 °F 72% 29.76 in 10.0 mi SW 15.0 mph 23.0 mph N/A   Overcast
3:16 PM 55.4 °F - 44.6 °F 67% 29.76 in 10.0 mi SW 12.7 mph 25.3 mph N/A   Overcast
3:53 PM 54.0 °F - 44.1 °F 69% 29.79 in 10.0 mi SW 12.7 mph 23.0 mph N/A   Overcast
4:53 PM 52.0 °F - 44.1 °F 74% 29.82 in 10.0 mi SW 11.5 mph - N/A   Overcast
5:53 PM 51.1 °F - 44.1 °F 77% 29.84 in 10.0 mi SW 13.8 mph - N/A   Overcast
6:53 PM 51.1 °F - 42.1 °F 71% 29.87 in 10.0 mi SW 12.7 mph - N/A   Overcast
7:53 PM 50.0 °F - 43.0 °F 77% 29.88 in 10.0 mi SW 11.5 mph 19.6 mph N/A   Overcast
8:53 PM 50.0 °F - 43.0 °F 77% 29.90 in 10.0 mi SW 6.9 mph - N/A   Overcast
9:42 PM 50.0 °F - 42.8 °F 76% 29.90 in 10.0 mi WSW 5.8 mph - N/A   Overcast
9:53 PM 48.9 °F - 43.0 °F 80% 29.92 in 6.0 mi West 9.2 mph - 0.00 in Rain Light Rain
10:08 PM 48.2 °F - 44.6 °F 87% 29.91 in 2.5 mi West 4.6 mph - 0.03 in Rain Rain
10:22 PM 48.2 °F - 46.4 °F 93% 29.92 in 2.5 mi WSW 3.5 mph - 0.05 in Rain Light Rain
10:32 PM 48.2 °F - 44.6 °F 87% 29.92 in 3.0 mi SW 6.9 mph - 0.06 in Rain Light Rain
10:39 PM 48.2 °F - 44.6 °F 87% 29.92 in 3.0 mi WSW 4.6 mph - 0.07 in Rain Light Rain
10:53 PM 48.0 °F - 45.0 °F 89% 29.93 in 6.0 mi WSW 4.6 mph - 0.07 in Rain Light Rain
11:53 PM 46.4 °F 45.2 °F 44.6 °F 93% 29.92 in 10.0 mi SW 3.5 mph - N/A   Overcast